www.pogodaiklimat.ru

Погода и климат >> Архив погоды >> Россия >> Бурятия >> Мухоршибирь


ПОГОДА в Мухоршибири

  • Прогноз погоды в Мухоршибири
  • Монитор погоды в Мухоршибири

АРХИВ ПОГОДЫ в Мухоршибири

Время (UTC), дата Ветер
(напр.,м/с)
 
Видим.   Явления Облачность Т
(С)
Тd
(С)
f
(%)
Тe
(С)
Тes
(С)
Комфортность P
(гПа)
Po
(гПа)
Тmin
(С)
Tmax
(С)
R
(мм)
R24
(мм)
S
(см)
18 11.09 СЗ 4 н/о 10/10 600 м
[Cb cap]
+11.9 +6.8 71 +10 +10 1007.4 924.0
21 11.09 З 4 н/о в посл. час ливневой дождь 10/10 600 м
[Cb cap]
+8.6 +6.9 89 +5 +5 1009.9 925.3
00 12.09 З 2 50 км {ливн. осадки} 10/10 600 м
[Cb cap]
+8.0 +6.7 91 +6 +6 1011.9 927.0 +7.6 3
03 12.09 З 3 50 км 9/9 600 м
[Cb cap]
+9.6 +6.7 82 +7 +8 1013.9 929.3
06 12.09 З 3 50 км 10 баллов +12.9 +6.0 63 +12 +12 1011.5 928.0
09 12.09 ЮЗ 3 50 км {ливн. осадки} 4/4 600 м
[Cb cap]
+14.0 +6.4 60 +13 +14 1011.2 928.0
12 12.09 СВ 1 н/о {ливн. осадки} 3/1 600 м
[Sc Ci fib]
+8.4 +6.1 85 +8 +8 1013.2 928.3 +14.6 0.3
15 12.09 штиль 0 н/о 2 балла +5.0 +4.0 93 +4 +4 1015.4 929.3
18 12.09 ЮЗ 2 н/о 10/10 600 м
[Cb cap]
+5.8 +4.8 93 +3 +3 1015.6 929.7
00 13.09 ЮЗ 1 50 км {ливн. осадки} 10/10 600 м
[Cb cap]
+4.8 +3.6 92 +3 +3 1018.6 932.2 +3.8 5
03 13.09 ЮЗ 2 50 км 6/6 600 м
[Cb cap]
+8.6 +3.2 69 +7 +10 1018.7 933.3
06 13.09 ЮЗ 2 50 км 5/5 600 м
[Cu hum]
+11.7 +2.7 54 +11 +15 1016.3 932.0
09 13.09 ЮЗ 2 50 км 8/8 600 м
[Cb cap]
+12.4 +2.3 50 +12 +13 1013.2 929.3
12 13.09 Ю 3 н/о 8/8 600 м
[Sc]
+10.2 +2.6 59 +8 +8 1012.8 928.4 +13.2
15 13.09 ЮВ 5 н/о 10/10 600 м
[Sc]
+10.4 +3.0 60 +8 +8 1012.3 928.0
18 13.09 штиль 0 н/о 9/9 600 м
[Cb cap]
+9.1 +3.3 67 +9 +9 1011.3 926.7
21 13.09 штиль 0 н/о 10/6 600 м
[Sc Cs]
+6.7 +3.8 82 +6 +6 1010.5 925.3
00 14.09 штиль 0 50 км 8/4 600 м
[Sc Ci]
+6.5 +4.2 85 +6 +6 1010.4 925.2 +4.3
03 14.09 ЮЗ 2 50 км 5/3 600 м
[Cb cap Ci fib]
+12.6 +5.0 60 +12 +16 1010.2 926.7
06 14.09 З 5 50 км 8/6 600 м
[Cb cap Ci fib]
+14.6 +0.4 38 +13 +15 1008.2 925.3
09 14.09 С 6-11
{13}
50 км 10/3 600 м
[Sc Ac lent Cs]
+11.6 +2.9 55 +9 +9 1010.6 926.7
12 14.09 СЗ 4
{12}
н/о 10/10 600 м
[Cb cap]
+6.8 +0.2 63 +4 +4 1016.0 930.3 +15.6
15 14.09 СЗ 1
{10}
н/о {ливн. осадки} 10/10 600 м
[Cb cap]
+5.4 -2.4 57 +5 +5 1019.8 933.3
18 14.09 В 1 н/о {ливн. осадки} ясно +0.3 -6.3 61 -1 -1 1024.5 936.0
21 14.09 СВ 1 н/о 3/0
[Ci fib]
-3.9 -6.5 82 -6 -6 1025.9 936.0
00 15.09 СВ 1 50 км 1/0
[Ci fib]
-0.2 -5.0 70 -2 -1 1024.1 935.5 -4.2 0.3
03 15.09 З 5 50 км 4/1 600 м
[Cu med, cong Cc]
+7.6 -1.6 52 +4 +7 1020.6 934.7
06 15.09 ЮЗ 5
{10}
50 км 9/9 600 м
[Cu Sc]
+9.8 +0.1 51 +7 +7 1018.4 933.3
09 15.09 ЮЗ 4 50 км 8/4 600 м
[Cb cap Ac lent Ci]
+11.6 +0.4 46 +10 +10 1016.4 932.0
12 15.09 Ю 4 н/о 8/6 600 м
[Sc Ac lent]
+10.8 +1.4 52 +9 +9 1014.7 930.3 +12.9
15 15.09 В 1 н/о 6/6 600 м
[Sc]
+6.1 +1.6 73 +5 +5 1016.7 930.7
18 15.09 штиль 0 н/о 3/3 600 м
[Sc]
+4.8 +1.5 79 +4 +4 1015.5 929.3
21 15.09 штиль 0 н/о 5/0
[Ac trans]
+3.2 +1.2 87 +2 +2 1016.1 929.3
00 16.09 штиль 0 50 км 4/0
[Ac lent Ci sp]
+5.3 +1.7 78 +4 +5 1014.9 928.9 +1.6
03 16.09 З 1 50 км 9/6 600 м
[Cb cap Ac lent]
+10.7 +3.9 63 +11 +11 1015.2 930.7
06 16.09 З 5 50 км 10/6 600 м
[Cb cap Ac lent Cs]
+13.3 +3.9 53 +12 +12 1014.4 930.7
09 16.09 СЗ 3
{12}
20 км слаб. ливневой дождь 10/10 600 м
[Cb cap]
+9.3 +6.4 82 +7 +7 1017.0 932.0
12 16.09 З 5 н/о {ливн. осадки} 9/9 600 м
[Cb cap]
+7.9 +3.5 74 +4 +4 1018.1 932.6 +14.0 0.7
15 16.09 ЮЗ 4
{11}
н/о 5/5 600 м
[Sc]
+5.0 +0.8 74 +1 +1 1024.2 937.3
18 16.09 штиль 0 н/о 2 балла +1.6 -1.1 82 +1 +1 1026.9 938.7
21 16.09 СВ 1 н/о ясно -2.6 -3.9 91 -5 -5 1031.2 941.3
00 17.09 З 1 50 км 5/1 600 м
[Sc Ac lent Ci fib]
-0.2 -1.9 88 -2 -2 1030.4 941.4 -2.7
03 17.09 З 5 50 км 10 баллов +8.4 -0.4 54 +5 +5 1029.1 942.7
06 17.09 З 4 50 км 2 балла +11.7 -3.6 34 +10 +14 1026.5 941.3
12 17.09 СВ 1 н/о ясно +6.8 +1.7 70 +6 +6 1025.8 939.3 +13.6
15 17.09 СВ 1 н/о ясно +4.4 +1.4 81 +3 +3 1027.4 940.0
18 17.09 штиль 0 н/о ясно +2.9 +1.3 89 +2 +2 1026.4 938.7
21 17.09 штиль 0 н/о 10 баллов +2.1 +0.6 90 +1 +1 1025.2 937.3
00 18.09 СВ 1 50 км 10/0
[Ac lent Cs]
+3.9 +2.4 90 +2 +3 1023.2 936.1 +1.8
03 18.09 ЮЗ 1 50 км 6 баллов +12.2 +4.4 59 +12 +16 1020.5 936.0
06 18.09 З 5 50 км 6 баллов +17.3 +4.9 44 +17 +18 1017.5 934.7
09 18.09 ЮЗ 4 50 км 7 баллов +17.5 +5.7 46 +17 +18 1017.4 934.7
12 18.09 СВ 2 н/о 1/0
[Ac lent]
+9.8 +5.1 73 +8 +8 1019.5 934.5 +18.1
15 18.09 СВ 2 н/о ясно +6.5 +4.2 85 +4 +4 1022.3 936.0

 

Местоположение метеостанции Мухоршибирь (Бурятия, Россия): широта 51.03 долгота 107.80 высота над уровнем моря 730 м.

В архиве по умолчанию представлена погода в Мухоршибири за последнюю неделю. Архивные данные за месяц целиком и за предыдущие месяцы, начиная с января 2011 года, Вы можете получить, выбрав интересующий диапазон дат из раскрывающегося списка и нажав кнопку "Ввод!".


*Определитесь, кто Вы:
робот инопланетянин человек

Внимание! Время в таблицах - всемирное. Для получения местного времени необходимо прибавить поправку, которая равна 8 ч.

Смотрите также архив погоды в соседних городах и на ближайших метеорологических станциях:

Погода в Бичуре (Бурятия, Россия) (52 км)
Погода в Петровском Заводе (Забайкальский край, Россия) (77 км)
Погода в Новоселенгинске (Бурятия, Россия) (84 км)
Погода в Улан-Удэ АМС (Бурятия, Россия) (88 км)
Погода в Улан-Удэ (Бурятия, Россия) (90 км)
Погода в Иволгинске (Бурятия, Россия) (90 км)
Погода в Красном Чикое (Забайкальский край, Россия) (97 км)
Погода в Новой Курбе (Бурятия, Россия) (123 км)
Погода в Кяхте (Бурятия, Россия) (123 км)
Погода в Улыгайин Дуганг (Монголия) (134 км)

Пояснения к столбцам:

Ветер - указаны скорость ветра в м/с - средняя за 10 мин, порывы в срок и между сроками (в фигурных скобках) и направление, откуда дует ветер: С - северный, СВ - северо-восточный, В - восточный, ЮВ - юго-восточный, Ю - южный, ЮЗ - юго-западный, З - западный, СЗ - северо-западный.
Видимость - горизонтальная дальность видимости в метрах или километрах. При видимости от 1 до 10 км при отсутствии осадков обычно наблюдается дымка, при ухудшении видимости до 1 км и менее - туман. В сухую погоду видимость может ухудшаться дымом, пылью или мглою.
Явления - указаны атмосферные явления, наблюдавшиеся в срок или в последний час перед сроком; фигурными скобками обозначены явления, наблюдавшиеся между сроками (за 1-3 часа до срока); квадратными скобками обозначены град или гололедные отложения с указанием их диаметра в мм.
Облачность - указаны через наклонную черту общая и нижняя облачность в баллах и высота нижней границы облаков в метрах; квадратными скобками обозначены формы облаков: Ci - перистые, Cs - перисто-слоистые, Cc - перисто-кучевые, Ac - высококучевые, As - высокослоистые, Sc - слоисто-кучевые, Ns - слоисто-дождевые, Cu - кучевые, Cb - кучево-дождевые. Подробнее классификацию облаков см. в Атласе облаков (PDF).
T - Температура воздуха - температура, измеренная на высоте 2 м над землей.
Td - Температура точки росы - температура, при понижении до которой содержащийся в воздухе водяной пар достигнет насыщения.
f - Относительная влажность воздуха - влажноcть воздуха, измеренная на высоте 2 м над землей.
Te - Эффективная температура - температура, которую ощущает одетый по сезону человек в тени. Характеристика душности погоды. При расчете учитывается влияние влажности воздуха и скорости ветра на теплоощущения человека.
Tes - Эффективная температура на солнце - температура, которую ощущает человек, с поправкой на солнечный нагрев. Характеристика знойности погоды. Зависит от высоты солнца над горизонтом, облачности и скорости ветра. Ночью, в пасмурную погоду, а также при ветре 12 м/с и более поправка равна нулю.
P - Атмосферное давление - приведенное к уровню моря атмосферное давление.
Po - Атмосферное давление - измеренное на уровне метеостанции атмосферное давление.
Tmin - Минимальная температура - минимум температуры воздуха на высоте 2 м над землей.
Tmax - Максимальная температура - максимум температуры воздуха на высоте 2 м над землей.
R - Количество осадков - Количество выпавших осадков за период времени, мм. При наведении курсора мыши на число - период времени, за который выпало указанное количество осадков.
R24 - Количество осадков - Количество выпавших осадков за 24 часа, мм.
S - Снежный покров - Высота снежного покрова, см. При наведении курсора мыши на число - состояние снежного покрова и степень покрытия местности в баллах.